This is the latest recevied weather packets stored in our database for station/object IK5UIK-3. If no packets are shown the sender has not sent any weather packets the latest 10 day(s).
| Time | Temp. | Humidity | Pressure | Rain* | Wind** | Luminosity | Snow |
|---|---|---|---|---|---|---|---|
| 1787474922 | 25.56° C | 60% | 1012.8 hPa | 0 mm | - | - | - |
| 1787474687 | 25.56° C | 60% | 1012.9 hPa | 0 mm | - | - | - |
| 1787474562 | 25.56° C | 60% | 1012.9 hPa | 0 mm | - | - | - |
| 1787474385 | 25.56° C | 60% | 1012.9 hPa | 0 mm | - | - | - |
| 1787474202 | 25° C | 59% | 1012.8 hPa | 0 mm | - | - | - |
| 1787473842 | 25.56° C | 60% | 1012.7 hPa | 0 mm | - | - | - |
| 1787473785 | 25.56° C | 60% | 1012.8 hPa | 0 mm | - | - | - |
| 1787473482 | 25° C | 62% | 1012.8 hPa | 0 mm | - | - | - |
| 1787473185 | 24.44° C | 63% | 1012.9 hPa | 0 mm | - | - | - |
| 1787473122 | 24.44° C | 64% | 1012.9 hPa | 0 mm | - | - | - |
| 1787472762 | 23.89° C | 64% | 1012.7 hPa | 0 mm | - | - | - |
| 1787472587 | 23.89° C | 64% | 1012.7 hPa | 0 mm | - | - | - |
| 1787472402 | 23.89° C | 66% | 1012.7 hPa | 0 mm | - | - | - |
| 1787472042 | 22.78° C | 69% | 1012.7 hPa | 0 mm | - | - | - |
| 1787471682 | 22.78° C | 70% | 1012.7 hPa | 0 mm | - | - | - |
| 1787471388 | 22.22° C | 70% | 1012.7 hPa | 0 mm | - | - | - |
| 1787471322 | 22.22° C | 70% | 1012.6 hPa | 0 mm | - | - | - |
| 1787471085 | 21.67° C | 70% | 1012.8 hPa | 0 mm | - | - | - |
| 1787470962 | 21.67° C | 71% | 1012.8 hPa | 0 mm | - | - | - |
| 1787470602 | 21.67° C | 72% | 1012.9 hPa | 0 mm | - | - | - |
| 1787470485 | 21.67° C | 72% | 1012.9 hPa | 0 mm | - | - | - |
| 1787470242 | 21.11° C | 73% | 1012.8 hPa | 0 mm | - | - | - |
| 1787470224 | 21.11° C | 74% | 1012.8 hPa | 0 mm | - | - | - |
| 1787470185 | 21.11° C | 74% | 1012.8 hPa | 0 mm | - | - | - |
| 1787469882 | 20.56° C | 74% | 1012.9 hPa | 0 mm | - | - | - |
* Rain latest hour (hover to see other rain measurements)
** Current wind speed in m/s (hover to see current wind gust speed)